Погода в Дашогузе

Погода в Дашогузе : погода сейчас, прогноз погоды и архив. Всё, что Вы хотите узнать о погоде в Дашогузе!

Поиск расширенной информации на нашем сайте:

Полезная информация:

Другие новости

Новости СМИ2

Главная страница сайта

Новости сайта

03.07.2017

Напоминаем, что на нашем специализированном сайте Метеоцентр.Азия вы можете получить высокодетализированные автоматические прогнозы погоды по пунктам России, СНГ и мира в авиационном формате (включающие направление и скорость ветра, видимость, явления погоды, количество и форму облачности, нижнюю и верхнюю границу облачности).

Рекомендуем:

Погода в Дашогузе - сегодня

Время (UTC), дата Ветер
(°,м/с) 
Видим.   Явления Облачность Т
(°С)
Тd
(°С)
f(%) Тe
(°С)
Pmin
(гПа)
dP
(гПа)
Po
(мм)
O2
(г/м3)
Тmin Tmax R s Состояние
почвы
00 22.05.19 360 (С) 10 км    5/0 верхняя 
[Ci fib]
+12.6 +3.4 53 +13  1018.8  757  291           
03 22.05.19 050 (СВ) 10 км    10/0 верхняя 
[Ci fib]
+15.2 +3 44 +15  1020.5  1.7  758  289  +12.1        сухая 
06 22.05.19 040 (СВ) 10 км    10/0 верхняя 
[Ci sp]
+19 +2.3 33 +19  1021.7  1.3  759  286  +12.1         
09 22.05.19 020 (С) 10 км    10/0 верхняя 
[Ci sp]
+20.9 +0.4 25 +21  1021  -0.6  758  284           
12 22.05.19 050 (СВ) 10 км    10/0 верхняя 
[Ci sp]
+22.9 +2.5 26 +23  1019.4  -1.6  757  281           
15 22.05.19 040 (СВ) 10 км    10/0 верхняя 
[Ci sp]
+21.8 +1.9 27 +22  1019.3  -0.1  757  282    +23.4       
18 22.05.19 050 (СВ) 10 км    8/0 верхняя 
[Ci sp]
+17 +0.4 32 +17  1020.3  0.8  758  287    +23.4       
21 22.05.19 020 (С) 10 км    6/0 верхняя 
[Ci sp]
+13.8 +1.5 43 +14  1019.7  -0.7  757  290           
00 23.05.19 070 (В) 10 км    8/0 верхняя 
[Ci sp]
+12.5 +0.9 45 +12  1019.1  -0.5  757  291           
03 23.05.19 100 (В) 10 км    10/0 верхняя 
[Ci fib]
+17.2 -0.9 29 +17  1019.2  0.2  757  287  +11.9        сухая 
06 23.05.19 130 (ЮВ) 10 км    10/0 верхняя 
[Ci sp]
+21.4 -0.7 23 +21  1018.5  -0.6  757  283  +11.9         
09 23.05.19 100 (В) 10 км    10/0 верхняя 
[Cs]
+23.3 -0.5 21 +23  1016.5  -1.9  755  280           
12 23.05.19 110 (В) 10 км    10/0 верхняя 
[Ci sp]
+24.2 -0.5 20 +24  1014.6  -1.9  754  279           
15 23.05.19 150 (ЮВ) 10 км    10/0 верхняя 
[Ci sp]
+22.5 +1.5 25 +23  1013.8  -0.8  753  280    +24.5       
18 23.05.19 нст () 10 км    10/0 верхняя 
[Ci sp]
+20.3 +0.9 27 +20  1013.5  -0.3  753  282    +24.5       
21 23.05.19 080 (В) 10 км    10/0 верхняя 
[Ci sp]
+16.6 +2.1 38 +17  1012  -1.7  752  285           
00 24.05.19 030 (СВ) 10 км    10/0 верхняя 
[Ci sp]
+15.4 +3.6 45 +17  1011.4  -0.6  751  286           
03 24.05.19 130 (ЮВ) 10 км    10/0 верхняя 
[Ci sp]
+17 +5.5 47 +18  1011.7  0.3  751  284  +15  +18.1       
06 24.05.19 190 (Ю) 10 км    6/0 средняя, верхняя 
[Ac trans|Ci fib]
+24.5 +0.2 20 +25  1011.4  751  278  +15         
09 24.05.19 220 (ЮЗ) 10 км    3/0 средняя 
[Ac trans]
+28.5 -1.2 14 +29  1009.3  750  274           
12 24.05.19 230 (ЮЗ) 10 км    8/0 средняя 
[Ac trans]
+29.8 -1.2 13 +30  1007.8  -1.5  749  272           
15 24.05.19 340 (С) 10 км  в посл. час ливневой дождь  9/3 2000 м кучево-дожд., средняя 
[Cb cap|Ac trans]
+26.4 +7.4 30 +26  1008.7  0.9  749  274    +31  0.0     
18 24.05.19 080 (В) 10 км  {ливн. осадки}  6/0 средняя 
[Ac cuf]
+20.3 +11.4 57 +23  1010.2  1.3  750  279    +31  0.0     
21 24.05.19 220 (ЮЗ) 10 км    6/0 средняя 
[Ac cuf]
+17.6 +10.2 62 +19  1010.6  0.2  751  282           
00 25.05.19 320 (СЗ) 10 км    6/0 средняя 
[Ac trans]
+17.4 +10.5 64 +20  1012  1.4  752  283           
Время (UTC), дата Ветер
(°,м/с) 
Видим.   Явления Облачность Т
(°С)
Тd
(°С)
f(%) Тe
(°С)
Pmin
(гПа)
dP
(гПа)
Po
(мм)
O2
(г/м3)
Тmin Tmax R s Состояние
почвы

Для получения пояснительной информации подведите курсор к названию столбца.

ПОГОДА в Дашогузе - архив

Всё, что Вы хотите узнать о погоде в Дашогузе - удобно и подробно!

Выберите нужную дату (начиная с 1 января 2018* года) и нажмите кнопку "Найти".
Будут отображены архивные сводки погоды по пункту Дашогуз, начиная с указанной даты.


Отображать данные в формате CSV (для использования в таблицах Excel)


Внимание! Наш архив погоды предназначен исключительно для личного некоммерческого использования в познавательных целях. Если Вам необходимы официальные справки о состоянии погоды (для производственных, юридических, коммерческих и т.п. целей), обращайтесь в органы Росгидромета.

*Примечание: данная дата относится к архиву по метеостанциям СССР (Россия, СНГ, Балтия).
Архив по метеостанциям Зарубежной Европы и Азии (кроме Китая) хранится 10 дней, по другим регионам земного шара (Китай, Африка, Америка, Австралия, Океания) - 1 день.

Дашогуз - район местоположения метеостанции


Название, широта, долгота, высота метеостанции:
Дашогуз (Ташауз) 41.8°ш. 59.8°д. 82 м над ур. моря [Туркменистан]

Дополнительная информация

В oтличие oт бoльшинства пoгoдных сайтoв мы публикуем пoдрoбную метеoинфoрмацию в детальнoм прoфессиoнальнoм фoрмате.

Характеристики температуры и влажнoсти вoздуха измеряются на высoте 2 м в тени вдали oт зданий и деревьев.
Скoрoсть ветра измеряется на высoте 10 м (на урoвне рoста челoвека скoрoсть ветра ниже в 1.5-2 раза). Если метеoстанция нахoдится в гoрoде или в лесу, тo скoрoсть ветра занижена на 2-4 м/с пo сравнению с oткрытым местoм. Скoрoсть ветра над акватoриями крупных рек и oзёр, а также на вершинах хoлмoв на 2-5 м/с выше, чем в oбычных услoвиях.
Атмoсфернoе давление в разных тoчках местнoсти мoжет значительнo oтличаться oт давления на метеoстанции, в зависимoсти oт услoвий рельефа (при пoдъёме на 10 м давление пoнижается примернo на 1 мм рт.ст.).